Location: Hobi?a Gr?di?te
(45.4833°N, 22.7833°E)
Time: 11:02:35
(UTC+00:00)

Cosmos 1844 Rocket - Pass Details

Date: 28 January 2023
Orbit: 826 x 843 km, 71.0° (Epoch: 20 March)

Event Time Altitude Azimuth Distance (km) Brightness Sun altitude
Rises 17:41:58 0° 337° (NNW) 3,377 6.1 -23.2°
Reaches altitude 10° 17:44:30 10° 343° (NNW) 2,439 5.3 -23.7°
Enters shadow 17:49:10 47° 32° (NNE) 1,088 3.0 -24.5°
